Weather History for Paducah, KY

Change the Weather History Date:

Wednesday, January 30, 2013

  Actual Average Record
Temperature  
Mean Temperature 45 °F 36 °F  
Max Temperature 56 °F 45 °F 64 °F (1988)
Min Temperature 33 °F 26 °F -3 °F (1966)
Degree Days  
Heating Degree Days 20 30  
Month to date heating degree days 812 917  
Since 1 July heating degree days 2339 2548  
Cooling Degree Days 0 0  
Month to date cooling degree days 0 0  
Year to date cooling degree days 0 0  
Moisture  
Dew Point 42 °F    
Average Humidity 80    
Maximum Humidity 100    
Minimum Humidity 59    
Precipitation  
Precipitation 0.78 in 0.13 in 2.57 in (1939)
Month to date precipitation 8.02 3.55  
Year to date precipitation 8.02 3.55  
Snow  
Snow 0.00 in 0.10 in 3.50 in (1981)
Month to date snowfall 0.3 2.9  
Since 1 July snowfall 6.0 5.2  
Snow Depth 0.00 in    
Sea Level Pressure  
Sea Level Pressure 29.56 in    
Wind  
Wind Speed 13 mph (WSW)    
Max Wind Speed 32 mph    
Max Gust Speed 44 mph    
Visibility 9 miles    
Events Rain    
T = Trace of Precipitation, MM = Missing Value Source: NWS Daily Summary

Daily Weather History Graph

Daily Weather History Graph

Search for Another Location

Airport:

Trip Planner

Search our weather history database for the weather conditions in past years. The results will help you decide how hot, cold, wet, or windy it might be!

Date:

Astronomy

Jan. 30, 2013 Rise Set
Actual Time 6:59 AM CST 5:18 PM CST
Civil Twilight 6:31 AM CST 5:45 PM CST
Nautical Twilight 6:00 AM CST 6:16 PM CST
Astronomical Twilight 5:29 AM CST 6:47 PM CST
Moon 9:09 PM CST (1/30) 8:33 AM CST (1/30)
Length of Visible Light 11h 14m
Length of Day
10h 19m
Waning Gibbous, 87% of the Moon is Illuminated
Jan 30
Waning Gibbous
Feb 3
Last Quarter
Feb 10
New
Feb 17
First Quarter
Feb 25
Full

Hourly Weather History & Observations

Time (CST) Temp. Windchill Dew Point Humidity Pressure Visibility Wind Dir Wind Speed Gust Speed Precip Events Conditions
12:34 AM 53.6 °F - 51.8 °F 94% 29.52 in 3.0 mi NNW 6.9 mph - 0.16 in Rain Rain
12:41 AM 53.6 °F - 51.8 °F 94% 29.53 in 2.5 mi NNW 3.5 mph - 0.20 in Rain Heavy Rain
12:53 AM 53.1 °F - 51.1 °F 93% 29.53 in 3.0 mi NNW 6.9 mph - 0.29 in Rain Heavy Rain
1:00 AM 53.6 °F - 51.8 °F 94% 29.51 in 3.0 mi North 12.7 mph - 0.05 in Rain Heavy Rain
1:53 AM 53.1 °F - 51.1 °F 93% 29.54 in 8.0 mi Calm Calm - 0.25 in Rain Light Rain
2:53 AM 52.0 °F - 51.1 °F 97% 29.53 in 5.0 mi SE 3.5 mph - 0.08 in Rain Rain
3:53 AM 52.0 °F - 51.1 °F 97% 29.49 in 6.0 mi SE 6.9 mph - 0.12 in Rain Rain
4:53 AM 52.0 °F - 51.1 °F 97% 29.47 in 10.0 mi SSE 10.4 mph - 0.06 in Rain Light Rain
5:10 AM 51.8 °F - 51.8 °F 100% 29.48 in 10.0 mi South 10.4 mph - 0.00 in Rain Light Rain
5:28 AM 51.8 °F - 51.8 °F 100% 29.48 in 10.0 mi South 9.2 mph - 0.00 in   Mostly Cloudy
5:53 AM 51.8 °F - 51.8 °F 100% 29.47 in 10.0 mi SSE 9.2 mph - N/A   Mostly Cloudy
6:21 AM 51.8 °F - 51.8 °F 100% 29.47 in 10.0 mi South 8.1 mph - N/A   Scattered Clouds
6:53 AM 52.0 °F - 51.1 °F 97% 29.46 in 10.0 mi South 3.5 mph - N/A   Partly Cloudy
7:00 AM 51.8 °F - 51.8 °F 100% 29.48 in 10.0 mi SSW 4.6 mph - N/A   Scattered Clouds
7:09 AM 51.8 °F - 51.8 °F 100% 29.48 in 10.0 mi SSW 4.6 mph - N/A   Mostly Cloudy
7:46 AM 53.6 °F - 51.8 °F 94% 29.48 in 10.0 mi SSW 6.9 mph - N/A   Overcast
7:53 AM 53.1 °F - 51.1 °F 93% 29.49 in 10.0 mi SSW 9.2 mph 17.3 mph N/A   Overcast
8:53 AM 54.0 °F - 51.1 °F 90% 29.48 in 10.0 mi SSW 10.4 mph 20.7 mph N/A   Overcast
9:10 AM 55.4 °F - 51.8 °F 88% 29.48 in 10.0 mi SW 13.8 mph 19.6 mph N/A   Overcast
9:53 AM 55.9 °F - 50.0 °F 80% 29.46 in 10.0 mi SSW 12.7 mph 19.6 mph N/A   Mostly Cloudy
10:53 AM 55.9 °F - 48.9 °F 77% 29.44 in 10.0 mi SW 12.7 mph 27.6 mph N/A   Mostly Cloudy
11:09 AM 55.4 °F - 48.2 °F 77% 29.45 in 10.0 mi SSW 13.8 mph 25.3 mph N/A   Overcast
11:23 AM 55.4 °F - 48.2 °F 77% 29.43 in 10.0 mi SW 16.1 mph 24.2 mph N/A   Mostly Cloudy
11:34 AM 55.4 °F - 48.2 °F 77% 29.43 in 10.0 mi SW 13.8 mph 27.6 mph N/A   Mostly Cloudy
11:53 AM 55.0 °F - 46.9 °F 74% 29.45 in 10.0 mi SW 15.0 mph 29.9 mph N/A   Overcast
12:33 PM 51.8 °F - 44.6 °F 76% 29.46 in 10.0 mi West 25.3 mph 40.3 mph 0.00 in   Overcast
12:53 PM 46.9 °F - 39.9 °F 77% 29.49 in 10.0 mi West 25.3 mph 39.1 mph 0.00 in   Overcast
1:07 PM 46.4 °F 38.1 °F 39.2 °F 76% 29.49 in 10.0 mi West 24.2 mph 32.2 mph N/A   Overcast
1:42 PM 46.4 °F 38.7 °F 39.2 °F 76% 29.50 in 10.0 mi West 20.7 mph 32.2 mph N/A   Overcast
1:53 PM 46.0 °F 37.2 °F 37.0 °F 71% 29.51 in 10.0 mi West 26.5 mph 33.4 mph N/A   Overcast
2:14 PM 46.4 °F 39.0 °F 37.4 °F 71% 29.52 in 10.0 mi West 19.6 mph 26.5 mph N/A   Overcast
2:53 PM 46.9 °F - 34.0 °F 61% 29.53 in 10.0 mi West 19.6 mph 25.3 mph N/A   Overcast
3:53 PM 41.0 °F 31.9 °F 32.0 °F 70% 29.60 in 10.0 mi WNW 19.6 mph 29.9 mph N/A   Overcast
4:53 PM 37.9 °F 28.2 °F 26.1 °F 62% 29.67 in 10.0 mi WNW 18.4 mph 35.7 mph N/A   Overcast
5:53 PM 36.0 °F 25.3 °F 23.0 °F 59% 29.72 in 10.0 mi WNW 19.6 mph 31.1 mph N/A   Overcast
6:53 PM 35.1 °F 24.5 °F 24.1 °F 64% 29.78 in 10.0 mi WNW 18.4 mph 26.5 mph N/A   Overcast
7:53 PM 34.0 °F 23.8 °F 23.0 °F 64% 29.82 in 10.0 mi WNW 16.1 mph 31.1 mph N/A   Overcast
8:53 PM 34.0 °F 23.0 °F 23.0 °F 64% 29.86 in 10.0 mi West 18.4 mph 31.1 mph N/A   Overcast
9:53 PM 33.1 °F 22.6 °F 21.9 °F 64% 29.89 in 10.0 mi WNW 16.1 mph 27.6 mph N/A   Overcast
10:53 PM 33.1 °F 23.0 °F 21.0 °F 61% 29.91 in 10.0 mi West 15.0 mph 28.8 mph N/A   Overcast
11:53 PM 33.1 °F 25.5 °F 19.9 °F 59% 29.94 in 10.0 mi WNW 9.2 mph - N/A   Overcast